[[{"header":{"parameterUnit":"m.s-1","parameterCategory":1,"la1":30.2991,"la2":30.254,"lo1":-89.0895,"lo2":-89.0444,"dy":0.0017,"dx":0.0017,"nx":28,"ny":28,"refTime":"2024-04-05T09:00:00:Z","depth":0,"parameterNumber":2,"parameterNumberName":"U-component_of_WINDS"},"data":[0,0,0,0,0,0,0,0,0,0,0,0,0,0,0,0,0,0,0,0,0,0,0,0,0,0,0,0,0,0,0,0,0,0,0,0,0,0,0,0,0,0,0,0,0,0,0,0,0,0,0,0,0,0,0,0,0,0,4.1487,4.1489,0,4.1684,4.1687,4.1689,4.1652,4.1648,4.1645,4.1642,4.1844,4.1853,4.1861,0,0,0,0,0,0,0,0,0,0,0,0,0,4.1079,4.1086,4.1487,4.1489,4.1492,4.1684,4.1687,4.1689,4.1653,4.1648,4.1644,4.164,4.1841,4.1852,4.1862,0,0,0,0,0,0,0,0,0,0,0,0,0,4.1264,4.1089,4.1487,4.1497,4.1499,4.1684,4.1687,4.169,4.1653,4.1648,4.1643,4.1638,4.1838,4.1851,4.1863,4.205,0,0,4.1903,4.1909,0,0,0,0,0,0,0,0,4.1253,4.1279,4.1493,4.1496,4.15,4.1638,4.1617,4.1811,4.1655,4.1595,4.1641,4.1635,4.178,4.1797,4.1846,4.2059,4.2068,4.1904,4.1912,4.1918,4.1922,0,0,0,0,0,0,0,4.1241,4.127,4.1565,4.1496,4.15,4.1491,4.1512,4.1654,4.1715,4.16,4.1598,4.1621,4.1781,4.1834,4.1851,4.2071,4.1904,4.1916,4.1924,4.1929,4.2448,4.2453,0,0,0,0,0,0,4.1224,4.126,4.1559,4.1571,4.1361,4.1503,4.1526,4.1599,4.1713,4.1725,4.1626,4.1619,4.1814,4.1835,4.1858,4.2084,4.1918,4.193,4.1938,4.2442,4.2449,4.2455,0,0,0,0,0,0,4.1216,4.1252,4.1551,4.1415,4.1452,4.1516,4.1598,4.1606,4.1658,4.1733,4.1744,4.1668,4.1811,4.1839,4.2002,4.209,4.1936,4.1948,4.2435,4.2444,4.2452,4.2537,0,0,0,0,0,0,4.1204,4.1249,4.132,4.1417,4.146,4.1693,4.1604,4.1613,4.1681,4.1674,4.1776,4.1787,4.1809,4.1983,4.2015,4.2105,4.1958,4.2427,4.2439,4.2449,4.2527,4.2548,4.2566,0,0,0,0,0,4.119,4.1336,4.1324,4.136,4.155,4.1698,4.1722,4.1744,4.1688,4.1761,4.1808,4.1784,4.2075,4.2,4.2036,4.2131,4.2422,4.2436,4.2449,4.2518,4.2544,4.2566,0,0,0,0,0,0,4.1248,4.1349,4.1337,4.1519,4.16,4.1691,4.1783,4.177,4.1869,4.1858,4.1881,4.1904,4.207,4.2117,4.2031,4.2318,4.2241,4.2262,4.2281,4.2306,4.2326,4.2311,4.1969,0,0,0,0,0,4.1282,4.1393,4.1475,4.1628,4.167,4.172,4.1784,4.1794,4.1879,4.1913,4.1973,4.2057,4.2167,4.2239,4.2345,4.2533,4.2555,4.2617,4.2636,4.2652,4.267,4.2774,4.2802,4.25,4.2499,4.2499,0,0,4.1354,4.1423,4.1492,4.1642,4.1706,4.1821,4.1749,4.1873,4.1958,4.1932,4.209,4.2137,4.2232,4.2409,4.2489,4.2453,4.2759,4.2669,4.2681,4.2691,4.279,4.2819,4.2844,4.2509,4.2507,4.2506,0,0,4.1543,4.1606,4.174,4.1806,4.1904,4.1936,4.1968,4.2062,4.2092,4.2251,4.2234,4.2335,4.2525,4.2593,4.2653,4.2868,4.285,4.2902,4.3004,4.3105,4.3129,4.315,4.3227,4.3255,4.292,4.292,4.292,0,4.162,4.1792,4.1811,4.1938,4.2004,4.1985,4.2122,4.2185,4.2312,4.2359,4.2316,4.2553,4.2616,4.2809,4.2861,4.291,4.2948,4.2891,4.3124,4.3145,4.3166,4.3239,4.3268,4.2926,4.2925,4.2925,4.2924,0,4.1881,4.2001,4.2098,4.2221,4.2299,4.2429,4.2469,4.2545,4.2548,4.2584,4.2746,4.2821,4.2941,4.2987,4.2991,4.3181,4.3156,4.3118,4.3041,4.32,4.3269,4.3298,4.2934,4.2932,4.293,4.2929,0,0,4.2114,4.2246,4.2281,4.2337,4.2443,4.2536,4.2666,4.2784,4.2849,4.2937,4.3047,4.3208,4.3174,4.3242,4.3253,4.3341,4.3508,4.3293,4.3296,4.3331,4.3722,4.3749,4.3782,4.3496,4.3501,4.3506,4.3714,0,4.2313,4.2542,4.2563,4.2769,4.2879,4.2863,4.2976,4.3054,4.3092,4.3191,4.3233,4.3347,4.3294,4.3334,4.3421,4.3469,4.3586,4.3454,4.3598,4.3603,4.3575,4.3818,4.3848,4.4041,4.3741,4.3746,4.3749,0,4.2576,4.2672,4.2889,4.298,4.3027,4.3129,4.3238,4.3333,4.3421,4.3443,4.3518,4.3518,4.3652,4.3569,4.3754,4.3664,4.3724,4.3757,4.3765,4.3779,4.3686,4.384,4.4103,4.4132,4.3792,4.3789,4.3786,0,4.2724,4.2908,4.3061,4.3109,4.3219,4.3291,4.334,4.3423,4.3492,4.3588,4.3633,4.3743,4.3804,4.3889,4.3919,4.3856,4.4103,4.4023,4.4125,4.4124,4.4178,4.4174,4.4455,4.4216,4.4216,4.4215,4.4214,0,4.2945,4.3078,4.3129,4.3224,4.3372,4.3395,4.3542,4.3587,4.3661,4.3764,4.3757,4.3854,4.3886,4.3989,4.4013,4.4163,4.419,4.4211,4.4216,4.4213,4.421,4.4253,4.424,4.4223,4.4221,4.422,4.4218,0,4.3136,4.3175,4.3341,4.3432,4.3457,4.3563,4.3641,4.3732,4.3768,4.3898,4.393,4.3987,4.4108,4.4145,4.4291,4.4307,4.4482,4.4475,4.4453,4.4453,4.4553,4.4544,4.4872,4.4916,4.4648,4.465,4.4652,0,4.3275,4.3377,4.3478,4.3546,4.3598,4.3708,4.3779,4.3805,4.3879,4.3987,4.4065,4.4184,4.4281,4.4474,4.4529,4.464,4.4636,4.4743,4.4653,4.4646,4.4638,4.4632,4.4642,4.476,4.4763,4.4765,4.4767,0,4.3517,4.3531,4.3633,4.3742,4.3827,4.3914,4.3998,4.4054,4.4093,4.4177,4.4299,4.4374,4.4523,4.4641,4.4754,4.4805,4.4794,4.4795,4.4825,4.4822,4.4805,4.4816,4.4499,4.4788,4.4786,4.4784,4.4783,4.4782,4.3686,4.3776,4.3861,4.3975,4.4041,4.412,4.421,4.4257,4.436,4.4482,4.4492,4.4625,4.471,4.4861,4.4917,4.5022,4.4991,4.5034,4.5045,4.5055,4.5063,4.4788,4.5042,4.5042,4.5041,4.5041,4.504,0,4.3929,4.3982,4.4087,4.4204,4.4294,4.4274,4.4366,4.4443,4.456,4.464,4.4735,4.4876,4.4991,4.5055,4.5169,4.5241,4.5239,4.527,4.5266,4.5278,4.5084,4.5047,4.527,4.527,4.527,4.527,4.527,4.527,4.4065,4.4216,4.4241,4.4425,4.4477,4.4607,4.4662,4.4734,4.4798,4.4956,4.5052,4.5092,4.5166,4.5286,4.539,4.5406,4.5449,4.5484,4.5497,4.5315,4.5291,4.5269,4.5234,4.5493,4.5493,4.5682,4.5683,4.5685]},{"header":{"parameterUnit":"m.s-1","parameterCategory":1,"la1":30.2991,"la2":30.254,"lo1":-89.0895,"lo2":-89.0444,"dy":0.0017,"dx":0.0017,"nx":28,"ny":28,"refTime":"2024-04-05T09:00:00:Z","depth":0,"parameterNumber":3,"parameterNumberName":"V-component_of_WINDS"},"data":[0,0,0,0,0,0,0,0,0,0,0,0,0,0,0,0,0,0,0,0,0,0,0,0,0,0,0,0,0,0,0,0,0,0,0,0,0,0,0,0,0,0,0,0,0,0,0,0,0,0,0,0,0,0,0,0,0,0,0.2815,0.2815,0,0.2787,0.2787,0.2787,0.2714,0.2713,0.2711,0.271,0.2685,0.2686,0.2686,0,0,0,0,0,0,0,0,0,0,0,0,0,0.2809,0.2809,0.2815,0.2815,0.2814,0.2787,0.2787,0.2786,0.2715,0.2713,0.2711,0.2709,0.2685,0.2686,0.2686,0,0,0,0,0,0,0,0,0,0,0,0,0,0.2799,0.2809,0.2815,0.2775,0.2771,0.2787,0.2787,0.2786,0.2715,0.2713,0.271,0.2708,0.2684,0.2685,0.2687,0.274,0,0,0.269,0.2691,0,0,0,0,0,0,0,0,0.28,0.28,0.2781,0.2778,0.2774,0.2752,0.2775,0.2771,0.2716,0.2737,0.271,0.2707,0.2709,0.2708,0.2708,0.2739,0.2738,0.269,0.2691,0.2691,0.2692,0,0,0,0,0,0,0,0.2801,0.28,0.2804,0.2781,0.2776,0.2759,0.2755,0.2774,0.2736,0.2735,0.2729,0.2727,0.2707,0.2707,0.2707,0.2738,0.269,0.2691,0.2692,0.2692,0.2811,0.2814,0,0,0,0,0,0,0.2807,0.2801,0.2805,0.2803,0.2781,0.2761,0.2757,0.2761,0.2736,0.273,0.2729,0.2723,0.2706,0.2706,0.2706,0.2768,0.2691,0.2693,0.2693,0.2809,0.2812,0.2814,0,0,0,0,0,0,0.2807,0.2808,0.2806,0.2801,0.2799,0.2764,0.2769,0.2762,0.2762,0.2731,0.2725,0.2736,0.2705,0.2704,0.2732,0.2766,0.2693,0.2694,0.2806,0.281,0.2813,0.2892,0,0,0,0,0,0,0.2807,0.2808,0.2828,0.2802,0.28,0.2832,0.2771,0.2763,0.2764,0.2757,0.2737,0.2731,0.2703,0.2731,0.2733,0.2766,0.2695,0.2803,0.2808,0.2812,0.2886,0.2898,0.2908,0,0,0,0,0,0.2807,0.2852,0.2829,0.283,0.2824,0.2834,0.2833,0.2799,0.2767,0.2787,0.2767,0.2732,0.2761,0.2734,0.2736,0.277,0.2801,0.2806,0.2812,0.2882,0.2896,0.2908,0,0,0,0,0,0,0.2885,0.2848,0.2822,0.286,0.2851,0.2822,0.2847,0.2815,0.2816,0.2809,0.2767,0.2763,0.2797,0.2786,0.2756,0.2821,0.2775,0.2781,0.2828,0.2841,0.2851,0.2855,0.2696,0,0,0,0,0,0.2906,0.2917,0.2884,0.2921,0.2917,0.2883,0.2886,0.286,0.2849,0.2845,0.2827,0.2819,0.2826,0.2832,0.2837,0.2883,0.2879,0.2908,0.2918,0.2927,0.2934,0.2959,0.2972,0.2833,0.2833,0.2832,0,0,0.295,0.2931,0.2941,0.2936,0.2925,0.2939,0.288,0.2897,0.2907,0.2848,0.2874,0.286,0.2848,0.2885,0.2901,0.2877,0.2971,0.2935,0.2942,0.2944,0.2966,0.2979,0.2991,0.2836,0.2836,0.2835,0,0,0.3039,0.3025,0.3054,0.3045,0.3029,0.3006,0.3013,0.2988,0.2977,0.3001,0.2958,0.2968,0.2982,0.2975,0.2974,0.3058,0.3026,0.306,0.3118,0.3142,0.3153,0.3163,0.3195,0.3207,0.3067,0.3067,0.3067,0,0.3097,0.3114,0.3074,0.3093,0.3092,0.3037,0.3067,0.306,0.3048,0.3049,0.3022,0.3037,0.3025,0.3061,0.3081,0.3081,0.3089,0.3064,0.3155,0.3164,0.3172,0.3202,0.3214,0.3071,0.3071,0.307,0.307,0,0.3187,0.32,0.3225,0.3214,0.3215,0.324,0.3203,0.321,0.3183,0.3162,0.3188,0.3171,0.3172,0.3178,0.3152,0.321,0.3195,0.3162,0.3116,0.3191,0.3218,0.3229,0.3078,0.3076,0.3075,0.3074,0,0,0.3327,0.329,0.3301,0.3295,0.3273,0.3282,0.3304,0.3304,0.3311,0.3303,0.3322,0.3333,0.3302,0.33,0.3273,0.3294,0.3363,0.3258,0.3257,0.328,0.3427,0.3455,0.3468,0.334,0.3342,0.3344,0.3429,0,0.3412,0.3447,0.341,0.3453,0.3465,0.3412,0.3432,0.3421,0.3402,0.3409,0.3388,0.3398,0.3355,0.3353,0.3371,0.3351,0.3393,0.3344,0.3359,0.336,0.3367,0.3482,0.3511,0.3593,0.3439,0.3441,0.3442,0,0.3517,0.3514,0.3558,0.3532,0.3536,0.3554,0.355,0.3557,0.3544,0.3528,0.3526,0.3492,0.3512,0.3465,0.3493,0.3461,0.3464,0.3455,0.3457,0.346,0.3408,0.3491,0.3618,0.3631,0.3458,0.3457,0.3456,0,0.3618,0.3623,0.365,0.3646,0.3617,0.3631,0.362,0.3603,0.3605,0.3602,0.3603,0.3603,0.3603,0.3604,0.3571,0.3539,0.3604,0.3554,0.3594,0.3595,0.3613,0.3613,0.3745,0.361,0.361,0.361,0.361,0,0.3718,0.3748,0.3695,0.3712,0.3744,0.37,0.3733,0.3716,0.3702,0.3716,0.3669,0.3683,0.3638,0.3647,0.3621,0.365,0.365,0.3639,0.3632,0.3645,0.3647,0.3649,0.3644,0.3613,0.3612,0.3612,0.3611,0,0.3837,0.3803,0.3829,0.3798,0.3791,0.3816,0.379,0.3805,0.3781,0.3799,0.3801,0.3765,0.3774,0.374,0.3743,0.3725,0.3768,0.3751,0.3773,0.3769,0.3812,0.3809,0.3953,0.397,0.3822,0.3824,0.3825,0,0.3905,0.3927,0.3898,0.3903,0.3893,0.3902,0.3903,0.3861,0.3864,0.385,0.3867,0.3871,0.3872,0.3888,0.3863,0.3865,0.3849,0.3899,0.3849,0.3861,0.3853,0.3853,0.3856,0.3911,0.3912,0.3914,0.3915,0,0.4031,0.4012,0.4015,0.4012,0.4014,0.401,0.4003,0.401,0.3964,0.397,0.3978,0.3979,0.398,0.3986,0.3982,0.3971,0.3937,0.393,0.394,0.3955,0.3968,0.3964,0.3804,0.3928,0.3927,0.3926,0.3925,0.3925,0.4128,0.4144,0.4126,0.4131,0.4121,0.4115,0.4127,0.4105,0.411,0.4108,0.4082,0.4095,0.408,0.4071,0.4063,0.4073,0.405,0.4064,0.4068,0.4073,0.4081,0.3963,0.4072,0.4072,0.4071,0.4071,0.4071,0,0.4252,0.4238,0.4242,0.4233,0.4237,0.4201,0.419,0.4197,0.4208,0.4196,0.4198,0.4207,0.4211,0.4186,0.4187,0.42,0.4184,0.4202,0.4202,0.4201,0.4101,0.4093,0.4215,0.4215,0.4215,0.4215,0.4215,0.4215,0.4318,0.4345,0.4324,0.4345,0.433,0.4341,0.4339,0.4333,0.4324,0.4335,0.4338,0.432,0.4303,0.4303,0.4306,0.4298,0.4302,0.4326,0.4313,0.4221,0.4207,0.4194,0.4187,0.4326,0.4326,0.4412,0.4413,0.4414]}]]